Wind_Speed
2 2 4 5 7 6 5 5 6 5 5 5 3 2 5 5 6 7 5 4 3 2 7 8 7 8 12 17 10 4 4 5 8 7 7 7 7 7 7 8 8 7 5 8 12 11 11 10 9 8 8 9 9 10 10 12 12 12 14 16 17 18 18 18 19 19 19 20 21 22 23 25 26 26 25 26 26 26 26 27 27 28 29 29 29 29
2 2 7 7 7 6 3 3 4 3 3 3 2 2 4 4 6 6 2 3 1 1 6 6 6 9 13 17 10 3 4 5 9 10 9 9 8 8 9 9 7 6 5 7 10 11 11 9 8 8 7 7 9 10 11 12 12 13 16 17 19 20 20 19 18 18 18 19 20 21 23 24 25 25 25 25 26 25 25 25 26 27 28 28 29 29
3 4 8 6 4 3 4 4 5 3 2 1 1 0 4 4 4 5 2 1 0 0 5 6 7 10 14 15 10 6 5 6 8 10 10 10 11 9 9 8 7 7 6 7 9 12 12 10 9 10 8 7 9 11 11 13 14 15 16 18 21 22 23 22 20 18 17 18 18 20 21 22 23 24 24 26 27 27 27 28 28 29 28 28 29 30
3 5 6 2 4 5 3 3 5 4 1 1 2 1 4 4 2 3 3 3 2 2 5 7 7 8 12 10 7 5 2 6 6 9 9 9 11 10 9 8 8 8 7 7 7 9 13 12 11 11 10 8 9 11 13 14 15 16 17 20 22 22 22 22 20 19 18 18 18 19 19 20 21 22 24 25 26 26 27 28 28 28 29 29 30 31
6 5 1 2 3 3 1 1 3 2 2 3 4 5 5 4 3 4 4 4 4 3 3 5 6 5 6 5 5 6 7 9 8 11 10 9 10 9 9 8 8 8 7 7 6 7 11 12 11 12 11 10 12 14 14 15 17 17 18 20 20 20 22 20 18 19 20 20 20 21 21 21 21 22 23 24 24 25 26 27 27 27 28 28 30 31
7 4 1 2 1 1 2 3 3 5 1 5 4 6 5 2 1 2 4 5 5 5 3 4 5 5 5 5 4 4 6 7 7 11 11 9 9 9 9 8 7 8 7 7 7 7 10 11 11 11 11 12 15 15 14 16 18 17 18 19 18 20 21 19 18 19 20 20 20 21 22 23 23 23 24 26 26 25 26 27 27 28 28 29 30 31
3 3 3 3 1 0 1 3 4 6 3 4 3 4 4 4 3 4 5 4 1 3 3 2 0 5 6 5 2 2 6 7 7 9 9 8 8 8 8 7 7 7 7 7 7 8 11 12 11 11 13 15 16 15 15 17 17 18 20 19 18 21 21 20 21 21 21 20 19 20 21 22 23 24 27 29 29 28 27 26 27 27 27 28 30 31
0 4 4 2 1 1 1 3 4 6 6 3 4 3 2 3 5 2 4 2 2 3 5 2 4 3 5 6 3 4 8 7 7 8 7 7 8 8 7 8 8 8 7 7 6 7 10 13 13 11 15 17 18 17 17 18 18 20 21 21 21 22 22 23 23 23 22 22 21 21 20 20 22 24 28 30 31 31 30 29 28 27 26 26 27 30
1 1 1 2 2 1 4 4 3 4 4 4 5 2 2 2 2 1 4 1 2 2 5 3 4 2 5 5 3 5 8 6 6 8 7 8 8 8 8 8 8 8 7 7 6 8 10 14 14 12 17 19 19 18 19 20 21 23 23 23 23 23 25 26 26 25 23 22 23 23 21 21 21 23 26 28 29 31 32 32 31 30 28 26 26 27
1 2 5 5 3 3 5 3 2 3 2 4 3 2 2 1 2 3 3 2 2 2 4 5 3 2 4 4 4 4 4 4 4 6 6 6 7 7 7 8 8 7 6 6 8 10 12 14 15 16 18 21 20 20 22 22 23 24 23 23 24 26 28 29 28 27 25 24 24 25 24 23 23 24 25 26 27 29 31 32 33 32 30 28 27 26
2 1 2 3 2 4 3 1 2 4 1 1 2 3 4 3 3 3 2 3 4 2 5 6 3 4 1 3 3 3 1 3 4 5 5 6 7 7 7 7 7 6 6 6 7 11 15 16 18 19 20 20 20 22 23 22 23 24 26 28 30 32 33 32 32 30 28 27 27 27 26 25 26 26 26 26 27 28 29 31 32 32 32 30 28 27
4 2 0 1 1 1 3 1 3 3 2 2 3 3 4 4 3 4 4 4 3 3 5 4 0 4 1 1 2 3 2 5 6 6 6 6 7 7 7 6 6 6 6 6 6 9 14 16 17 18 18 18 20 23 23 23 25 28 31 33 35 36 36 35 34 32 31 30 30 31 29 28 28 28 27 27 28 28 28 30 32 32 32 32 30 28
4 2 3 2 1 1 3 2 4 5 5 4 3 4 4 4 3 3 3 2 1 4 4 1 3 2 2 1 1 2 4 5 6 6 7 8 7 7 6 5 5 6 6 7 6 7 10 11 12 14 16 18 21 22 24 26 27 30 33 34 35 36 36 35 35 35 35 33 32 33 32 32 32 30 30 30 31 30 30 31 32 32 32 33 32 30
4 4 4 3 2 2 3 1 2 2 2 2 1 3 3 1 2 3 4 2 2 4 4 2 2 1 1 2 3 3 5 4 5 6 7 8 8 6 5 5 6 7 6 6 6 5 7 9 12 13 15 18 21 23 24 25 27 30 32 34 34 34 34 36 37 37 37 34 34 35 36 37 36 34 33 33 34 34 34 33 33 34 34 34 33 32
2 4 2 1 1 2 1 3 3 2 1 2 3 3 3 3 2 3 3 2 3 4 4 2 1 2 2 4 5 4 5 5 7 8 7 7 6 5 5 6 7 6 6 5 5 5 7 9 11 13 16 19 21 21 21 23 26 29 31 32 32 33 36 38 38 38 37 36 37 37 38 40 39 36 33 35 37 37 37 36 36 36 35 35 34 33
1 4 3 1 1 1 0 2 2 2 1 2 1 3 1 3 4 2 3 4 3 2 3 2 1 1 2 4 2 4 7 8 8 7 7 7 5 6 6 6 6 5 5 4 4 3 5 8 10 13 17 19 20 20 21 24 28 30 32 33 33 34 37 38 38 38 38 38 38 38 39 40 38 35 34 36 37 38 39 38 37 36 36 36 35 34
1 4 3 1 2 1 3 2 1 0 1 1 1 0 3 4 5 1 3 3 2 2 3 2 2 1 2 4 3 7 8 8 7 7 7 7 7 7 6 5 5 5 3 2 1 2 5 9 13 16 19 22 22 21 24 29 32 34 34 34 35 36 37 37 38 39 39 38 38 38 38 38 36 35 35 36 38 39 38 36 34 35 37 37 36 35
0 5 4 1 2 3 3 1 2 1 1 2 1 3 2 1 3 2 0 3 4 1 3 2 3 3 3 3 3 7 7 7 6 6 6 7 6 5 4 4 5 4 2 1 3 5 10 14 16 19 23 24 23 24 29 33 35 34 33 33 35 36 37 39 40 38 37 37 38 38 38 38 37 36 36 36 37 36 34 33 34 35 36 37 37 37
0 3 5 1 2 4 1 2 3 4 1 2 3 2 1 1 1 1 1 1 2 1 3 4 2 0 1 2 2 4 5 6 7 6 6 7 6 5 5 5 6 5 3 3 5 6 10 14 16 20 24 24 24 28 32 34 35 34 34 35 35 36 38 39 37 36 37 38 38 37 37 37 36 36 36 36 36 35 35 35 36 36 37 38 38 39
1 0 5 3 2 3 3 2 1 3 3 2 2 3 1 2 3 1 1 2 1 2 3 4 4 3 2 2 3 3 5 6 6 5 5 6 6 5 5 6 6 6 6 5 5 6 10 15 19 22 23 23 27 30 33 35 35 34 35 36 37 38 38 36 35 37 39 39 36 36 37 37 37 37 36 36 36 36 35 36 36 36 36 37 38 39
2 1 4 4 2 2 2 1 4 3 1 1 2 1 1 1 1 0 1 2 3 2 2 2 2 1 1 1 5 6 4 3 3 4 4 5 5 5 6 8 8 9 8 6 5 7 11 17 22 22 22 25 29 31 34 35 34 33 35 36 37 37 36 35 38 39 38 35 36 39 41 41 41 40 38 37 36 35 34 33 32 31 32 31 31 30
1 1 3 4 4 3 3 4 4 5 4 4 3 2 3 2 1 1 4 2 2 2 3 2 2 2 2 3 6 6 3 3 3 5 5 5 6 7 9 10 10 10 8 6 6 9 14 20 22 20 21 26 30 32 35 34 32 34 36 36 36 36 35 38 40 38 35 36 40 42 42 41 40 39 37 36 34 32 31 30 31 32 34 34 33 31
1 1 2 5 5 4 6 5 2 2 3 4 2 2 3 3 3 3 4 3 1 1 2 2 1 3 3 4 5 5 3 3 4 5 6 7 7 8 10 11 10 8 6 6 8 12 17 21 20 20 24 28 30 32 33 32 33 34 35 36 37 37 38 39 37 34 36 41 43 42 40 39 38 38 36 33 31 30 31 31 34 36 36 35 35 34
1 1 1 4 5 4 5 4 1 1 1 1 2 1 1 0 3 5 4 2 1 2 1 1 2 3 5 5 5 5 4 4 5 7 8 8 8 9 11 11 8 6 6 7 9 15 19 20 19 22 25 28 30 31 32 32 33 34 34 36 38 39 39 36 34 36 41 45 44 40 38 37 37 36 31 28 31 32 32 35 37 37 35 34 35 35
2 1 1 3 5 6 6 5 4 4 2 1 2 2 2 2 4 3 1 3 1 3 3 2 3 3 4 3 5 6 7 8 9 9 10 10 10 10 10 8 6 6 6 7 10 15 17 17 20 22 25 28 30 30 31 32 33 34 36 38 38 38 36 33 36 41 44 44 41 38 37 35 33 31 29 32 36 35 36 39 41 40 38 36 35 34
1 2 0 0 2 4 4 4 3 3 3 2 2 3 3 3 3 1 1 3 1 3 0 2 4 4 3 7 11 12 13 13 12 12 11 9 9 9 8 6 6 7 7 9 12 13 14 17 20 23 26 28 30 30 32 33 34 36 39 39 36 33 32 36 41 42 41 39 36 35 34 32 33 37 37 38 39 39 40 44 45 44 43 40 38 38
1 2 2 4 5 5 5 6 5 1 3 6 6 5 2 2 3 4 3 2 3 1 2 2 2 7 8 8 10 11 11 11 11 12 11 11 10 9 7 7 8 9 8 10 11 12 14 17 20 24 27 29 30 32 32 32 34 37 40 37 32 30 35 41 42 40 37 34 32 32 34 35 40 44 42 40 41 43 44 45 45 44 45 44 42 42
3 3 4 4 7 7 6 8 8 4 4 7 6 2 1 2 4 6 2 3 3 1 3 2 3 7 7 6 8 9 9 9 10 11 11 12 11 9 8 10 11 11 10 10 11 12 14 15 19 25 28 29 32 33 31 31 34 37 35 31 31 35 40 41 39 36 33 31 32 34 36 38 40 41 40 43 45 44 43 44 44 44 44 42 39 38
3 4 4 2 6 8 7 9 10 6 4 4 2 3 5 3 4 5 2 3 4 2 5 4 5 6 4 6 7 8 9 9 10 10 11 13 10 8 10 13 13 12 12 12 12 13 12 14 19 25 26 28 32 31 30 32 36 35 32 30 33 38 40 39 36 32 30 32 35 37 37 38 39 39 42 44 44 43 43 43 43 42 40 37 37 39
3 3 3 2 5 10 9 9 7 5 2 3 4 2 4 4 4 4 1 0 2 3 6 5 7 4 2 6 8 8 7 7 8 10 12 14 11 10 12 14 14 13 12 12 12 12 13 18 22 23 24 28 30 29 30 33 34 32 31 32 35 37 38 35 31 29 33 38 39 38 38 39 39 41 43 42 40 41 41 40 40 39 38 38 41 43
2 2 2 1 2 8 8 6 5 2 2 4 6 5 4 4 4 4 2 2 4 4 5 6 6 4 2 6 8 7 7 9 11 13 14 13 10 11 13 14 14 12 10 11 13 12 15 20 22 22 23 27 28 27 30 32 31 31 32 33 35 36 35 30 28 33 39 41 39 39 39 40 41 42 43 41 39 38 38 40 41 40 41 42 42 42
1 2 3 5 2 6 5 5 8 4 5 6 6 7 6 5 4 3 2 3 2 4 5 6 5 4 4 6 6 6 8 10 11 13 14 10 8 11 14 16 16 12 11 13 13 13 16 18 20 21 24 27 28 28 30 32 32 33 35 35 36 35 31 28 32 39 42 40 38 39 39 41 43 43 43 41 39 38 40 43 44 43 43 43 42 42
2 0 2 2 1 5 4 6 8 3 5 3 4 5 3 3 4 4 4 3 2 2 3 4 3 4 6 7 8 8 8 9 9 11 11 9 9 13 16 16 14 11 11 13 13 14 16 18 20 22 25 28 29 29 30 32 33 35 37 38 37 34 29 30 37 41 40 38 38 38 40 42 42 43 43 42 42 43 45 45 44 43 43 42 41 39
1 1 2 1 1 5 6 7 6 2 1 2 3 4 1 4 6 7 6 3 4 3 2 2 4 5 6 6 7 8 8 7 8 9 7 7 11 15 15 12 9 10 12 13 13 16 18 20 23 25 27 29 30 30 32 33 34 36 37 37 36 32 29 32 39 42 40 39 39 40 41 41 42 44 45 44 45 46 45 44 43 43 42 41 39 37
1 0 2 1 2 3 4 6 5 2 2 4 2 6 3 4 5 6 4 1 5 4 3 5 6 6 6 4 4 7 7 7 8 8 4 9 11 13 12 9 9 12 14 13 14 18 22 25 26 28 30 31 31 32 33 33 36 38 37 36 35 31 29 34 40 40 39 40 41 41 41 43 45 46 45 45 45 45 44 43 43 43 43 41 38 37
1 1 1 1 1 1 3 4 1 1 2 1 1 5 5 4 5 7 3 1 3 4 5 7 7 7 7 6 6 7 8 9 9 5 5 11 12 9 8 9 11 14 15 14 17 21 25 27 28 29 31 31 32 32 31 32 37 39 37 35 33 30 31 35 39 39 39 40 40 41 43 45 47 48 47 46 44 43 43 43 43 43 42 40 39 38
4 2 1 1 0 1 1 3 2 1 1 3 4 4 4 3 4 6 4 1 2 4 5 6 9 8 7 7 8 9 12 12 7 0 6 12 12 9 11 12 15 18 17 17 20 23 25 27 27 27 29 30 31 29 28 32 37 37 35 34 32 31 33 36 37 38 39 39 40 44 46 46 46 47 47 45 44 43 44 43 42 42 40 39 38 38
2 3 2 1 0 2 2 3 3 2 2 1 3 5 5 4 5 5 4 3 3 7 6 6 8 9 8 9 11 12 14 12 6 1 7 12 10 11 12 15 20 21 18 19 22 23 25 27 27 27 28 29 30 28 28 32 35 34 32 32 31 32 34 36 38 40 40 40 42 45 46 45 45 45 45 44 44 44 44 44 42 41 40 39 37 38
3 1 4 3 1 3 3 2 2 3 3 1 5 7 6 6 7 4 1 2 5 9 7 8 9 8 8 9 11 11 10 10 7 7 10 11 11 12 13 16 21 21 17 19 23 23 25 28 28 27 29 30 30 30 30 33 33 32 31 30 30 32 34 36 40 41 41 42 44 44 44 44 44 43 43 44 44 44 44 43 42 42 41 40 38 38
5 3 4 4 2 2 2 1 2 2 2 3 7 7 7 8 4 3 2 4 6 9 8 10 10 7 6 8 8 8 6 7 10 12 14 14 13 14 15 18 22 21 19 21 24 24 26 27 27 28 30 31 32 32 32 33 32 31 30 30 30 31 33 38 42 43 43 44 44 43 43 43 43 42 42 43 43 42 42 42 42 42 41 41 39 35
4 3 2 3 2 3 1 1 3 2 1 4 8 7 7 6 2 3 4 6 8 9 7 8 7 5 6 8 7 6 5 8 11 13 15 17 14 13 17 20 22 20 19 23 26 27 28 28 26 27 29 30 33 34 34 34 33 32 32 31 30 32 36 40 43 43 44 45 44 44 44 43 42 42 42 41 41 40 41 42 42 42 41 41 37 29
2 3 2 2 2 3 1 1 3 2 1 5 9 7 4 4 2 2 5 5 7 7 6 7 6 5 7 8 7 7 9 11 10 10 12 15 12 12 18 23 23 21 21 24 26 28 29 28 27 27 28 30 32 33 34 35 33 32 33 31 32 36 40 42 42 43 44 45 44 44 44 43 43 42 41 40 39 39 40 42 42 41 39 36 31 26
1 0 2 2 1 2 2 2 2 2 2 6 8 5 3 3 2 4 5 4 4 4 6 7 5 5 6 8 8 9 11 11 9 9 11 12 12 14 20 23 22 22 23 24 26 28 29 27 27 28 30 31 33 33 34 34 33 33 32 32 35 40 42 42 42 43 44 44 44 44 44 43 43 42 40 39 38 39 40 41 40 38 35 32 30 28
1 2 0 2 0 2 1 2 1 2 3 5 5 3 3 3 1 2 3 3 3 4 5 6 6 5 6 8 9 11 10 8 8 10 11 11 12 16 20 22 23 23 23 23 26 28 28 27 27 28 30 31 33 34 34 34 34 33 33 34 38 42 42 41 42 43 44 44 43 43 43 42 41 40 39 38 38 39 39 39 37 35 33 33 31 27
1 1 3 2 1 2 3 4 2 1 1 3 2 2 3 3 2 3 3 3 4 4 4 5 6 7 7 8 10 10 8 7 8 10 11 10 12 16 20 22 23 24 23 24 27 29 28 27 28 29 31 32 33 34 34 34 33 33 35 37 41 41 41 42 43 44 43 43 43 42 41 40 39 38 37 37 38 39 38 36 34 34 34 33 30 26
1 1 1 1 2 3 3 2 1 1 4 4 3 2 4 4 3 4 4 4 4 4 4 5 5 6 7 9 10 8 7 8 9 10 10 9 12 16 19 21 23 24 24 25 28 29 29 28 28 29 31 34 34 34 34 33 32 32 35 39 41 40 40 42 43 44 43 43 42 41 39 38 37 36 37 38 38 37 36 34 33 33 33 31 28 25
1 2 2 1 2 3 2 1 3 5 8 7 4 4 5 5 4 4 3 4 5 5 4 4 6 7 9 9 8 7 7 8 10 10 9 8 11 16 18 20 22 23 23 25 27 29 29 28 28 30 32 34 35 34 34 34 32 33 36 38 39 40 40 41 42 43 43 42 40 38 37 36 35 35 37 40 39 36 35 36 35 33 31 29 27 25
1 2 2 1 2 3 4 2 5 7 7 4 5 6 5 4 3 4 4 5 8 7 6 7 8 9 10 9 7 7 7 8 10 10 8 8 12 16 18 20 21 22 24 25 27 28 28 27 28 29 31 32 34 35 34 34 34 35 36 37 38 39 40 41 41 41 41 40 37 36 35 35 34 35 38 40 39 36 34 35 36 33 30 29 27 26
2 2 2 2 3 4 3 5 8 7 4 2 7 8 5 2 3 5 5 7 9 8 8 9 9 10 11 10 8 8 8 9 11 12 9 10 14 16 18 20 21 22 24 25 26 27 27 27 28 29 30 32 33 34 34 34 35 36 36 37 38 38 39 41 42 40 39 38 36 35 35 34 34 35 37 38 39 39 35 33 32 31 30 30 28 27
2 1 2 3 3 3 3 5 7 6 4 4 9 8 4 4 6 6 6 8 9 8 7 7 8 11 13 10 8 9 8 8 12 14 11 12 16 18 20 21 22 23 24 25 26 26 26 27 28 29 30 32 33 33 34 35 36 37 36 36 37 38 39 41 40 38 36 36 35 35 34 34 34 36 37 36 37 40 40 38 35 31 29 30 30 30
1 1 1 3 2 3 4 5 5 5 4 6 9 7 4 6 7 7 7 9 9 8 8 8 7 9 10 8 7 9 10 11 14 14 12 14 18 20 20 21 22 24 25 26 26 27 28 29 29 30 31 32 32 33 34 35 36 37 37 37 37 38 39 40 37 35 34 35 35 34 33 33 34 35 36 35 35 35 36 38 40 39 36 34 33 32
Wind_Direction
104 331 279 242 245 235 212 180 170 172 146 158 181 197 240 254 270 267 261 253 161 151 255 240 247 269 276 282 283 257 238 177 166 154 144 142 128 121 109 107 117 117 129 130 121 124 126 116 106 99 93 90 83 73 61 49 41 29 18 10 4 359 352 347 342 335 328 320 314 308 303 300 301 300 298 298 299 298 297 299 297 292 290 288 285 282
64 269 258 233 227 211 163 115 112 120 105 113 173 248 278 253 259 273 242 248 214 132 270 268 281 281 278 283 289 266 238 182 163 153 145 139 123 114 113 111 113 104 99 96 86 95 112 107 95 95 97 94 86 84 71 54 43 26 16 11 3 356 349 345 343 339 332 326 321 316 310 307 304 302 302 303 304 302 300 299 297 294 292 287 285 284
360 255 247 223 179 115 66 62 85 98 106 104 149 222 285 262 272 309 6 289 285 146 278 300 310 290 281 286 302 287 225 182 160 146 141 135 120 115 118 112 103 90 73 71 65 71 81 80 85 84 76 87 95 87 65 47 39 25 18 12 3 356 348 342 339 339 336 329 323 317 314 310 305 303 304 304 303 299 296 295 294 293 290 286 285 284
298 252 239 208 103 91 34 33 80 66 38 214 183 181 261 275 300 297 310 305 263 230 273 301 304 286 287 301 327 320 137 116 107 112 112 118 118 118 118 107 98 92 75 65 54 54 59 59 70 66 55 86 97 72 55 47 38 28 20 10 0 355 349 341 334 336 337 331 324 317 313 310 304 303 303 302 302 300 297 295 293 291 290 287 285 284
244 247 228 55 61 105 177 295 107 108 312 275 208 207 245 270 262 238 276 315 313 310 312 326 317 292 311 2 21 6 69 91 85 93 90 92 106 108 101 91 89 91 82 71 55 45 48 48 56 53 52 82 81 63 56 45 36 28 16 4 356 350 347 343 335 335 335 331 328 324 318 313 307 305 306 305 308 312 309 305 302 299 295 291 288 286
255 264 86 84 10 85 165 238 209 169 258 305 243 218 217 198 301 306 338 356 1 336 341 30 355 294 323 34 61 19 62 86 84 97 102 97 98 96 91 87 81 77 73 66 55 48 45 43 47 50 63 83 73 60 50 36 31 22 5 357 352 345 344 342 335 331 329 327 328 325 319 314 308 304 304 305 308 312 314 312 310 307 303 298 292 289
278 342 57 108 176 193 182 256 246 167 141 304 250 185 153 95 14 345 11 20 7 281 278 62 60 266 311 341 239 164 91 91 93 101 105 100 97 95 94 91 79 70 61 46 37 38 42 41 38 50 75 80 64 50 39 29 19 3 353 349 344 339 337 335 330 326 322 319 319 319 315 310 304 298 298 303 303 303 306 308 308 307 306 303 298 293
83 22 25 62 123 141 226 270 257 151 126 262 231 150 76 15 329 338 69 72 230 270 300 257 171 227 300 302 268 129 106 101 99 91 87 95 99 96 94 88 81 73 59 49 35 25 36 36 30 58 82 68 51 40 28 16 2 352 348 344 338 334 332 331 327 321 315 311 310 312 310 304 300 297 297 301 301 299 299 299 301 302 302 302 299 296
164 77 238 182 137 211 216 245 262 148 139 242 223 204 289 285 259 121 102 213 249 9 322 287 156 183 273 287 347 80 108 110 96 85 88 100 97 95 92 86 80 68 55 53 40 25 33 30 29 66 76 51 37 29 14 4 356 351 347 341 335 332 331 330 326 316 308 304 303 303 301 297 297 298 298 299 299 298 296 294 295 296 295 297 297 296
294 203 206 156 149 226 229 261 334 106 188 239 211 260 321 59 134 104 125 187 36 47 276 268 181 150 281 300 1 39 87 103 98 91 96 96 91 96 92 83 74 61 50 43 37 31 26 25 38 61 54 33 25 16 5 360 355 350 345 339 335 333 332 330 325 316 305 300 298 297 295 292 293 296 296 295 294 294 293 290 289 290 289 291 292 294
312 239 188 110 168 210 193 275 42 89 208 250 53 354 359 31 70 77 115 103 55 315 256 260 207 124 334 321 3 345 340 141 124 88 78 76 82 88 82 78 70 58 48 34 29 25 22 32 50 51 35 23 18 10 4 359 354 352 350 346 341 337 334 331 328 321 311 303 298 296 293 289 289 292 290 287 285 287 288 285 284 286 285 286 288 292
341 17 297 343 271 173 102 7 353 37 22 54 61 23 3 357 33 34 2 51 75 267 263 269 176 113 156 294 12 348 15 130 129 105 99 93 86 79 74 74 63 53 48 34 26 21 26 42 50 38 25 20 14 9 6 2 358 357 354 349 343 338 335 333 331 327 321 312 304 299 292 287 287 287 284 281 280 281 282 281 282 284 283 283 285 287
329 308 286 314 328 58 83 357 334 360 24 49 61 51 32 348 359 5 329 357 181 248 250 165 73 101 209 204 170 64 73 117 132 123 117 100 81 74 73 66 50 47 41 29 27 26 32 42 37 24 20 17 12 10 7 4 1 357 353 348 341 336 335 335 333 330 326 320 316 310 301 293 288 286 284 281 280 280 280 280 280 280 280 280 280 282
329 307 324 357 332 8 87 114 318 332 23 60 101 88 86 53 1 303 291 311 276 263 247 156 83 271 219 112 185 144 106 116 100 89 95 90 87 86 76 59 46 38 32 27 28 35 37 31 21 16 17 15 10 7 4 2 0 356 352 347 340 337 337 337 335 331 327 324 325 323 315 306 295 287 287 287 285 284 282 281 280 280 279 277 276 278
323 301 317 49 305 356 65 173 174 175 210 227 193 140 135 144 151 240 241 245 268 281 286 291 314 252 152 146 184 143 91 77 71 70 75 78 82 82 61 48 41 26 24 31 33 35 24 12 12 17 17 12 5 2 2 1 359 356 351 346 342 339 338 336 334 332 329 326 326 324 321 315 302 292 293 295 293 289 286 283 281 280 279 276 275 277
223 260 259 295 297 93 136 238 146 122 277 270 151 97 135 184 161 194 218 218 246 319 314 288 258 311 110 132 147 62 62 61 60 59 59 51 41 51 47 37 32 19 20 37 40 21 358 1 16 21 14 4 359 359 1 2 359 354 348 344 341 338 334 332 331 330 327 324 323 323 323 319 309 301 302 303 300 296 290 284 281 283 284 281 278 278
8 276 271 348 325 176 180 243 332 53 276 358 69 192 232 189 140 135 268 284 32 23 283 230 130 32 85 115 41 37 53 51 45 45 44 38 34 43 43 27 20 13 16 45 25 322 347 10 17 16 7 358 356 1 3 1 356 349 345 342 338 335 332 331 330 328 325 324 324 323 323 321 316 312 311 311 308 303 295 289 289 293 291 285 281 279
188 279 281 64 297 263 197 196 336 334 156 124 198 251 262 113 100 104 287 345 19 332 265 236 163 176 160 139 26 29 43 34 29 37 35 33 36 32 25 16 5 358 350 327 342 353 8 14 12 7 360 355 359 5 2 356 349 344 342 339 337 335 333 330 328 327 327 328 327 324 322 321 318 317 316 316 314 309 303 301 302 301 295 290 286 283
125 289 297 309 241 286 340 65 339 333 13 148 205 255 46 78 325 10 99 340 338 276 280 295 285 137 115 132 39 24 36 31 23 26 27 24 21 12 7 2 352 352 346 336 350 4 10 10 7 0 356 358 5 2 355 349 344 341 340 339 338 335 332 330 329 331 331 330 326 323 322 322 322 322 321 320 318 315 311 309 307 303 299 295 291 287
3 264 288 280 214 290 356 46 291 314 339 11 359 341 29 162 190 193 179 173 181 248 264 304 343 33 42 174 139 87 51 48 33 21 17 8 5 5 1 351 350 355 349 347 1 7 7 7 1 357 359 4 3 355 349 346 342 340 340 339 338 336 334 333 334 334 331 328 327 327 327 328 328 327 325 323 322 319 316 314 313 310 306 301 296 290
350 181 262 289 311 325 331 232 193 185 185 67 55 322 308 293 189 203 246 161 142 194 226 294 324 70 64 109 118 102 81 89 63 26 9 0 3 5 359 353 353 353 352 359 6 1 6 4 357 358 5 3 356 350 347 344 341 340 340 339 338 338 337 336 335 333 330 331 332 331 330 328 327 326 324 323 322 321 320 321 322 322 321 318 314 307
320 207 252 295 316 301 272 243 190 170 177 157 153 200 186 150 104 305 291 297 103 163 186 192 261 211 128 112 120 117 122 112 56 30 15 6 4 2 359 356 352 351 356 2 0 1 5 360 355 359 4 358 351 348 344 342 341 341 340 340 339 338 337 334 332 331 332 334 333 330 327 326 326 326 324 322 323 325 327 328 329 329 327 326 323 320
215 126 275 283 272 262 275 272 211 177 196 180 184 202 166 143 131 164 256 273 351 288 215 148 224 219 166 129 115 115 117 85 46 33 20 4 360 0 357 355 356 357 360 358 2 6 1 355 355 1 359 353 348 345 342 341 341 341 341 341 339 337 335 334 332 333 335 333 330 327 326 325 326 325 322 324 329 331 331 329 328 326 323 320 317 314
332 78 305 288 287 302 311 306 301 34 104 159 284 323 114 156 136 156 198 183 154 272 262 102 270 218 167 143 125 123 111 72 44 28 14 1 359 1 356 355 1 1 353 356 6 3 356 355 0 360 354 349 345 342 341 341 341 341 341 341 339 336 334 335 336 336 334 331 328 327 327 326 325 323 325 334 338 335 332 330 328 325 323 320 316 311
306 258 22 328 326 337 345 346 337 342 22 34 296 355 42 59 80 90 69 72 78 247 191 168 250 221 158 110 61 46 32 29 25 16 10 5 359 355 354 355 356 351 348 359 5 357 355 1 0 355 350 346 343 341 341 341 342 343 342 341 338 334 335 338 338 335 332 330 328 328 328 326 326 329 336 341 338 333 330 328 325 323 321 320 319 316
251 237 188 26 295 301 304 301 292 297 318 315 313 348 14 70 86 89 41 72 136 265 228 168 241 278 352 26 23 17 12 9 6 4 3 2 353 347 350 353 348 349 355 2 0 355 357 359 354 350 348 345 343 343 343 343 343 343 340 337 335 335 338 339 336 333 332 330 329 330 330 332 335 336 336 334 331 327 325 323 321 318 315 313 313 313
66 285 233 191 214 239 248 257 263 290 314 296 300 321 343 101 97 101 96 132 187 258 299 215 257 315 337 16 18 8 8 2 354 355 354 350 348 349 356 356 352 352 355 357 357 354 355 353 349 349 348 346 345 344 342 343 344 341 337 335 337 341 341 337 335 333 332 331 333 333 334 336 336 334 332 330 328 325 323 322 321 318 315 311 307 306
66 305 265 222 237 250 252 266 283 302 281 269 277 297 132 112 85 96 127 217 174 133 277 262 357 330 327 14 16 357 359 358 352 355 352 345 347 357 0 355 350 349 350 354 356 355 353 350 348 348 347 347 345 341 341 343 342 339 336 335 340 341 339 336 334 333 333 335 337 335 331 331 331 330 329 328 326 324 324 324 322 320 318 314 311 311
106 260 254 241 270 276 270 270 279 280 262 267 265 163 155 146 117 119 191 210 131 165 257 288 334 317 326 14 5 355 359 357 354 356 348 342 349 5 360 350 346 348 351 353 353 353 354 350 348 347 347 347 343 340 343 344 341 339 338 339 340 338 336 335 333 334 337 338 335 332 329 329 328 328 327 326 325 324 324 324 323 322 320 318 318 317
118 254 259 234 280 290 285 278 285 276 261 18 34 108 142 144 132 123 162 146 68 265 262 306 320 300 46 20 354 357 3 355 355 354 345 344 353 2 354 346 346 349 351 351 351 353 354 350 347 347 347 346 342 342 345 343 340 340 339 337 337 336 335 334 334 337 339 335 330 329 328 328 327 327 328 327 326 325 325 326 325 323 321 320 318 316
92 266 300 51 311 296 295 308 337 332 152 75 38 27 51 72 72 65 38 4 358 307 302 342 327 292 41 15 352 355 2 0 360 350 341 346 356 353 346 344 345 348 349 352 354 353 351 348 347 347 347 344 341 343 344 341 339 338 336 335 335 334 332 332 336 339 336 331 329 328 328 328 327 327 328 327 326 325 325 326 324 321 319 318 316 315
77 275 334 38 10 286 291 336 344 7 95 81 34 12 23 43 36 6 336 345 340 301 320 348 335 301 331 350 350 2 10 5 354 341 337 345 354 350 345 343 344 350 355 354 353 350 348 347 347 346 344 342 341 343 343 341 339 337 335 334 334 332 331 335 339 337 333 330 329 329 329 328 328 328 328 328 326 325 324 323 321 320 319 318 316 315
134 254 314 35 338 274 287 324 325 13 94 57 352 349 7 56 37 351 332 357 11 350 346 342 302 298 326 343 350 357 2 358 344 335 337 343 349 349 345 340 344 355 357 349 348 349 347 347 346 343 342 341 340 341 342 341 339 336 334 334 333 331 331 336 338 335 332 331 330 329 329 328 328 327 327 326 325 323 322 321 320 319 318 317 315 313
111 119 248 214 198 271 293 326 342 38 129 257 333 1 4 108 57 0 326 360 45 64 57 316 292 313 341 354 351 339 337 345 336 323 334 2 356 343 336 339 355 360 350 345 349 352 349 345 342 341 341 340 339 339 340 340 338 335 333 333 332 331 332 335 336 334 332 331 330 329 329 328 327 326 324 324 324 323 322 321 319 318 318 316 314 311
12 74 252 239 191 254 311 6 22 6 223 202 90 30 34 107 57 352 302 98 64 48 28 349 327 335 349 344 328 319 321 332 319 303 347 21 356 334 333 349 8 359 347 348 353 353 351 347 342 340 340 339 338 337 337 338 338 336 334 334 333 331 332 334 334 333 332 330 330 330 329 327 326 325 324 323 323 323 321 320 318 318 317 315 313 310
150 187 258 255 222 287 4 16 359 247 215 176 48 17 20 41 24 357 332 99 54 14 2 348 331 338 347 330 323 323 319 320 311 300 34 13 347 343 2 7 5 356 351 356 357 352 349 345 340 338 337 336 335 335 335 337 338 336 333 334 334 331 333 334 333 332 331 330 329 329 328 326 325 324 323 323 323 322 321 319 317 317 316 314 313 311
144 142 20 347 218 87 13 306 288 241 327 12 4 349 354 356 350 341 312 228 59 6 354 346 335 341 348 336 333 333 325 324 319 72 46 5 352 18 29 14 1 353 352 359 357 350 345 340 336 335 334 334 333 333 334 337 338 336 333 334 334 333 334 334 332 331 331 329 327 327 327 326 325 323 323 323 322 321 320 318 317 316 315 313 311 310
141 158 118 89 313 71 49 342 353 319 263 328 336 313 318 303 296 309 277 234 8 6 6 6 352 351 356 347 345 343 334 330 328 20 14 1 11 33 26 10 0 351 351 357 353 346 343 339 336 335 336 336 335 334 335 338 338 336 333 332 334 334 334 333 332 331 330 328 327 327 326 326 325 323 322 322 321 320 319 317 316 315 314 312 308 307
2 126 108 90 8 41 50 11 310 252 225 266 315 308 312 294 291 316 252 245 360 10 17 19 7 5 5 352 350 354 346 332 323 337 352 1 22 30 16 5 357 349 350 354 348 343 342 339 336 337 339 340 339 336 337 338 338 336 333 332 333 333 333 332 331 330 328 326 326 326 326 325 324 323 322 320 320 319 318 317 316 315 314 311 308 305
5 13 61 61 11 4 26 327 267 229 204 331 317 303 297 288 300 26 312 291 9 25 23 16 8 6 8 357 356 4 359 329 314 322 343 359 16 21 12 1 351 344 346 349 345 343 342 341 340 340 340 341 340 338 338 338 337 335 332 331 332 333 333 332 330 328 327 326 326 326 326 326 324 323 322 320 320 319 319 317 316 315 314 312 309 305
4 351 41 71 35 345 346 261 283 255 192 325 313 296 298 309 32 58 301 313 12 24 22 14 5 7 13 4 357 349 334 317 309 318 343 356 3 9 3 355 347 342 344 345 343 344 343 341 342 341 339 340 340 339 340 339 337 334 332 331 332 333 332 331 329 328 328 327 327 327 327 327 326 324 323 322 321 320 320 320 319 317 315 312 307 305
9 335 347 51 15 329 311 242 296 279 163 340 321 307 332 6 29 322 316 354 16 11 9 2 359 21 17 356 340 327 318 317 320 333 349 352 353 355 352 349 345 343 344 344 344 345 343 340 340 339 338 340 340 340 340 339 336 334 333 332 332 333 332 331 330 329 329 328 329 329 329 329 328 327 326 325 324 323 322 323 322 319 317 314 312 315
102 356 319 322 314 340 356 1 324 269 283 346 338 330 17 39 352 321 340 10 21 10 4 353 356 26 6 335 326 324 319 322 336 348 347 345 349 351 348 346 345 342 342 343 343 344 343 339 338 338 337 338 340 340 341 339 335 333 332 332 332 333 333 332 331 330 330 329 330 330 330 329 329 329 327 326 327 326 325 325 324 323 323 323 323 322
97 121 228 283 207 98 24 317 266 220 282 335 349 6 34 37 28 1 351 345 10 17 2 348 350 1 347 330 328 325 322 330 346 346 343 346 351 350 347 346 343 339 339 341 342 343 343 339 337 336 336 337 339 340 341 340 336 332 332 332 333 334 333 332 332 331 330 330 331 330 330 330 330 329 329 328 329 330 328 326 327 328 328 327 323 319
248 167 171 208 230 179 211 229 199 165 280 318 344 70 74 65 70 67 43 8 9 8 354 345 341 342 343 335 328 325 328 346 352 347 346 349 349 348 345 343 339 337 337 339 341 343 342 339 337 336 335 337 339 340 341 340 336 332 331 333 334 335 334 333 332 331 331 331 331 331 331 330 330 330 330 331 332 331 329 328 330 330 328 325 321 318
257 311 147 165 308 302 247 214 123 4 334 343 2 62 78 64 38 43 43 19 3 351 342 341 336 341 347 338 331 333 344 355 353 345 344 345 343 343 343 339 336 336 337 339 342 342 341 339 338 337 336 336 338 339 339 339 337 332 331 333 335 335 335 334 333 332 331 331 332 332 331 330 330 331 332 333 333 333 331 331 330 329 326 324 321 318
336 19 44 64 348 328 311 37 46 356 337 346 8 30 46 49 36 35 36 12 353 334 324 345 358 356 348 339 337 345 354 358 352 341 338 342 340 340 341 337 334 335 337 340 341 340 340 339 338 338 336 335 336 338 337 337 336 334 333 334 335 336 335 334 333 332 331 332 332 332 332 331 330 331 333 333 334 333 333 334 332 328 325 323 321 319
306 27 33 20 327 284 264 302 357 339 321 347 35 22 20 36 27 20 24 7 350 337 342 10 15 0 345 344 357 2 357 355 348 337 335 341 339 338 338 334 332 334 336 338 339 339 339 338 337 336 334 332 333 335 335 335 335 335 335 336 337 337 336 335 335 333 331 332 332 332 332 331 331 332 333 334 333 333 334 334 333 329 326 323 321 317
335 354 343 325 304 278 274 334 353 337 306 28 32 12 6 35 8 360 7 0 352 355 6 14 11 360 351 357 13 12 357 347 342 337 335 338 337 336 335 332 332 334 335 335 337 338 337 335 334 333 331 330 331 333 333 333 334 336 337 338 339 339 338 336 335 334 332 332 333 333 332 332 333 334 334 333 333 333 334 333 333 330 327 327 328 322
15 359 353 357 328 306 334 355 355 340 312 343 359 358 19 45 11 360 5 358 356 11 17 5 359 360 358 2 17 13 354 339 338 338 338 338 336 334 332 332 333 333 333 334 334 334 334 333 332 331 330 330 331 332 332 332 334 337 339 340 341 341 339 337 336 334 334 334 333 333 333 332 333 334 335 335 334 334 334 335 337 338 336 335 336 333
62 219 335 353 301 296 338 359 4 350 322 323 340 353 39 40 11 5 7 357 357 17 18 4 358 358 353 358 16 11 353 339 338 340 341 338 334 332 332 333 333 332 332 333 333 332 332 332 333 332 331 330 331 331 331 332 335 338 340 341 342 342 340 339 336 334 333 333 332 332 332 332 332 334 335 336 336 336 335 335 338 342 344 344 344 341
Height
813 815 817 817 814 813 814 814 814 815 816 817 820 822 824 826 825 818 816 820 822 821 816 814 815 813 805 796 795 797 796 800 804 805 808 810 810 813 818 822 824 826 827 828 828 829 830 830 831 831 832 832 833 833 833 834 834 834 835 835 835 834 834 832 831 830 829 828 827 826 824 823 822 821 820 819 818 817 815 814 813 812 811 810 809 808
815 817 816 816 817 816 816 816 816 817 817 819 821 823 825 827 824 818 818 821 823 821 813 810 813 812 804 795 794 797 796 798 801 802 806 809 812 817 820 824 826 827 828 829 829 830 830 831 831 832 832 832 833 833 834 834 834 835 835 835 835 834 833 832 831 830 829 828 826 825 823 822 820 819 818 817 815 814 813 812 811 810 809 808 807 806
818 816 815 818 819 818 818 819 818 819 820 821 824 826 826 825 822 819 821 824 823 821 813 810 813 810 802 796 794 796 795 796 799 799 804 808 813 820 822 825 827 828 829 830 830 830 831 831 832 832 832 833 833 834 834 834 835 835 835 836 835 834 833 832 830 829 828 827 826 824 823 821 819 818 817 815 814 812 811 810 809 808 807 806 804 804
819 815 816 819 818 818 819 820 820 821 823 823 825 826 823 821 822 819 821 825 823 821 815 813 816 811 802 796 796 797 794 797 802 802 806 810 814 820 823 825 827 828 830 830 831 831 831 832 832 833 833 833 834 834 835 835 835 835 836 835 835 834 833 831 829 828 827 825 824 823 821 820 818 817 815 814 812 811 809 808 807 806 805 804 802 801
816 816 820 819 818 820 821 821 822 823 824 824 824 824 821 821 822 820 823 824 819 819 819 816 813 804 799 798 799 801 799 801 805 807 811 816 818 822 825 826 828 829 831 831 832 832 832 833 833 833 834 834 835 835 835 836 835 835 835 835 834 833 832 830 828 827 825 823 822 821 819 818 816 815 813 811 810 808 807 806 805 804 803 802 800 799
814 819 823 820 820 822 821 822 823 823 825 824 823 824 823 822 823 823 825 823 819 818 818 819 816 803 797 799 803 804 803 806 809 811 815 820 822 824 826 828 830 831 832 832 833 833 833 834 834 834 834 835 835 836 836 836 835 835 835 834 833 832 830 828 827 825 823 821 820 818 816 815 813 812 810 809 807 806 805 803 802 801 800 799 798 797
818 824 825 822 822 822 823 824 823 824 826 824 825 829 827 824 824 824 825 824 823 821 819 822 824 816 803 799 804 806 806 810 812 814 819 823 825 826 829 831 832 833 834 834 835 835 835 835 835 835 835 836 836 837 837 836 836 835 834 834 832 831 829 827 825 823 821 819 818 816 814 813 811 809 807 806 805 803 802 801 800 799 798 797 795 794
822 825 825 824 824 824 824 823 822 825 825 823 828 831 826 823 824 825 828 829 829 827 824 823 824 824 813 805 809 811 809 811 813 817 824 825 827 829 831 832 834 835 836 836 836 836 836 836 836 836 837 837 838 837 837 836 836 835 834 833 831 830 828 826 823 821 820 818 816 814 812 810 809 807 804 803 802 800 799 798 796 795 794 794 793 791
823 822 821 822 823 824 823 824 825 823 821 823 830 831 826 826 827 829 832 831 833 831 822 819 822 823 815 808 813 814 810 814 819 824 828 828 830 832 833 835 836 837 837 837 838 837 837 837 837 838 838 838 838 837 837 836 836 835 834 832 831 829 827 825 822 820 818 816 814 812 810 807 805 803 801 799 798 797 795 794 792 792 790 790 789 788
822 823 823 822 822 824 824 827 827 822 821 826 831 829 828 831 831 832 833 832 835 830 816 814 820 819 812 810 815 813 812 822 829 831 831 831 834 834 835 838 838 839 839 838 838 838 838 838 838 839 838 838 838 838 837 836 836 835 833 832 830 828 826 823 821 818 816 814 812 809 807 804 801 799 797 796 794 793 792 790 788 787 786 785 784 783
825 827 827 826 825 825 826 829 829 826 826 827 829 826 825 831 835 834 834 835 832 822 815 817 819 817 814 820 828 826 824 831 834 834 834 834 836 836 838 840 840 840 840 839 840 839 839 839 839 839 839 839 839 838 837 836 836 835 833 831 829 827 825 822 819 816 814 812 809 807 804 801 798 796 794 792 790 789 788 786 784 782 781 780 779 778
825 825 825 827 830 829 826 827 829 831 829 826 828 827 822 825 830 830 832 834 826 814 814 820 818 815 815 824 836 836 833 835 833 832 835 835 837 839 840 841 841 841 841 841 841 841 841 841 841 840 840 840 839 838 837 836 835 834 832 830 828 825 823 820 818 815 812 810 807 805 802 799 796 793 791 788 786 784 783 781 779 778 776 775 774 773
820 826 830 829 830 830 826 824 827 830 830 827 826 825 821 820 821 822 823 823 818 814 817 818 816 815 821 830 837 835 833 834 832 833 835 837 840 841 842 842 842 842 842 842 842 843 844 843 842 841 840 840 839 837 836 835 834 832 831 830 827 824 822 819 817 814 811 808 805 803 800 797 794 791 788 785 783 780 779 777 775 773 772 770 769 769
820 827 831 828 827 831 829 823 822 824 826 826 822 821 823 824 825 825 821 818 814 815 819 820 816 815 825 836 836 832 834 834 836 838 839 841 842 842 843 843 843 844 843 844 845 845 845 844 842 841 840 839 838 836 835 834 833 831 830 828 826 824 821 819 816 812 809 806 804 801 798 795 792 788 785 782 780 777 775 773 771 769 767 766 765 764
825 823 825 827 827 831 831 827 826 825 825 825 823 823 824 823 827 827 823 821 818 818 820 820 817 815 822 833 835 834 838 840 841 843 843 844 844 844 844 845 845 846 846 847 846 845 845 844 843 841 840 839 837 836 835 834 832 831 829 827 825 822 819 817 814 811 808 805 802 799 796 793 789 786 783 780 777 775 772 770 767 765 763 762 760 760
829 820 825 834 834 833 831 830 833 829 824 826 826 825 824 823 825 825 824 824 823 826 824 817 820 827 828 832 837 839 842 844 844 844 843 844 845 845 846 847 847 847 848 848 847 846 845 843 842 840 839 838 837 836 835 833 831 829 827 825 823 821 818 815 813 810 807 804 800 797 794 791 787 784 781 778 775 772 770 767 764 762 760 758 757 755
832 822 826 836 834 833 834 834 835 830 823 824 825 823 826 829 827 824 826 827 826 830 825 813 821 836 836 833 838 842 843 845 845 844 845 846 846 847 848 849 849 848 848 848 846 844 842 840 840 839 838 837 836 835 834 832 831 829 826 824 821 819 817 814 811 808 805 802 798 795 792 789 786 783 780 776 773 770 767 764 762 760 757 755 753 752
838 828 826 833 829 831 839 838 835 836 830 825 825 825 828 831 828 828 831 830 831 834 826 814 816 829 835 835 840 844 845 846 847 847 849 849 849 849 850 850 849 848 847 846 843 842 840 839 839 839 838 837 836 835 834 832 831 829 827 824 821 817 814 812 809 806 803 800 796 793 790 787 784 781 778 775 771 768 765 763 760 758 755 752 750 748
841 831 826 834 833 831 839 836 828 834 837 830 828 830 828 826 824 829 832 831 835 838 832 820 813 822 835 840 844 848 849 850 851 851 852 851 851 851 851 850 849 847 846 844 843 841 841 840 840 839 838 837 837 836 835 833 831 829 826 823 821 817 814 811 808 805 802 799 796 792 789 786 783 780 777 773 770 767 764 761 758 755 752 749 747 745
840 835 828 832 836 833 833 829 821 826 834 834 834 832 829 827 826 828 829 830 834 838 838 828 820 831 843 845 849 853 854 856 856 855 855 853 853 852 851 850 848 846 845 843 844 843 842 842 841 840 839 838 838 836 835 833 830 827 825 822 820 816 813 810 807 804 801 798 795 792 788 785 782 779 776 773 770 766 763 760 756 753 750 747 744 741
839 838 830 827 834 831 824 823 821 821 825 829 830 828 827 828 828 829 830 831 831 832 836 834 833 845 850 846 851 857 857 859 858 857 857 855 854 853 851 849 846 844 844 844 845 844 843 842 841 840 839 839 838 836 834 832 830 828 825 822 819 816 812 809 806 804 800 797 794 791 788 784 781 778 775 772 769 765 762 759 756 752 749 746 743 740
841 840 835 830 830 824 819 825 829 827 827 825 823 822 824 825 827 830 833 836 834 831 836 839 840 850 853 850 855 858 858 859 858 857 857 854 853 852 849 848 847 846 846 846 846 845 843 843 841 840 840 839 838 836 834 832 829 827 825 822 819 815 813 809 805 802 799 796 794 791 787 783 780 777 773 770 767 764 761 758 755 752 748 745 742 740
847 845 843 837 830 825 826 832 835 835 834 830 824 823 824 824 824 827 831 837 838 837 840 843 843 850 855 853 855 857 857 857 856 856 856 854 852 851 850 849 848 848 848 847 846 845 844 843 842 841 840 839 837 835 833 831 829 827 824 821 818 814 812 809 805 802 799 795 792 789 786 782 778 775 771 768 765 762 760 757 754 751 747 744 741 738
849 846 844 837 828 826 829 831 833 835 832 826 824 826 828 827 828 831 833 838 842 840 841 846 846 848 854 855 854 856 857 855 855 855 854 853 851 851 850 849 849 849 848 847 847 846 845 844 842 842 841 839 837 835 833 831 828 826 823 820 817 813 810 807 804 801 798 794 790 786 783 780 776 772 769 766 763 761 759 756 753 750 746 743 739 736
847 841 843 841 832 828 827 825 826 829 827 824 825 831 834 834 836 838 838 843 846 844 844 848 844 839 843 850 851 851 852 852 853 854 853 853 853 851 851 851 850 850 848 848 847 846 845 844 843 843 841 840 838 835 833 830 828 825 823 820 817 812 808 806 803 800 796 792 788 784 782 778 774 771 768 766 763 761 758 755 752 749 746 742 738 734
849 843 844 844 841 838 832 827 825 827 830 828 828 833 836 837 837 836 839 844 847 849 850 849 844 835 837 847 851 851 853 853 853 854 854 855 855 853 853 853 852 850 849 848 848 846 846 845 845 844 842 840 838 836 833 830 828 825 822 820 817 812 809 806 803 800 795 791 787 783 780 777 774 771 768 765 762 759 756 753 750 746 743 740 736 732
853 849 845 842 841 840 835 832 831 834 837 833 830 834 839 841 839 837 842 847 849 855 854 849 848 844 843 854 860 859 859 859 858 858 857 856 855 854 855 854 853 851 850 849 849 848 847 847 846 844 843 841 839 837 835 832 829 826 822 818 816 813 810 806 802 799 794 790 787 783 781 778 775 772 768 764 761 758 754 750 747 743 738 735 731 728
854 850 847 845 842 839 839 836 834 837 840 835 833 838 842 844 841 840 844 846 849 855 852 846 849 849 851 861 867 864 863 863 862 861 859 857 856 856 856 855 853 852 851 850 850 849 849 848 846 845 843 842 840 838 835 833 830 827 823 818 815 813 810 807 802 798 794 791 787 785 782 779 775 772 768 764 760 756 752 748 744 739 734 730 727 724
856 852 850 849 843 839 840 838 835 839 839 834 834 837 840 843 841 841 844 846 850 854 851 848 850 852 858 867 868 866 865 865 863 863 862 859 858 858 857 855 853 852 851 851 851 851 850 849 847 845 844 842 840 837 834 832 829 825 822 819 816 813 810 806 801 797 794 792 789 785 782 778 775 771 767 763 758 753 749 745 741 736 732 728 724 721
858 853 850 851 846 839 837 836 836 838 836 837 841 841 842 844 844 846 848 849 853 853 850 852 854 856 864 870 867 866 866 866 865 864 861 859 858 859 858 856 854 853 852 852 852 852 851 850 848 847 845 842 840 836 833 831 828 824 821 819 815 812 809 805 801 798 795 792 789 785 781 777 774 770 766 762 756 752 747 743 739 734 730 727 723 719
857 854 850 852 849 840 833 831 833 834 835 842 850 850 849 849 849 853 853 852 855 855 853 857 858 859 865 868 866 867 867 866 866 864 861 860 860 860 859 857 855 855 855 854 854 853 852 850 849 847 845 843 840 837 834 831 828 825 822 819 816 812 808 805 802 799 796 792 788 784 780 776 772 768 764 760 755 751 746 742 738 733 729 725 720 716
858 857 854 854 853 843 833 830 833 836 839 845 853 856 856 854 855 858 857 856 860 860 859 862 864 865 866 866 867 868 868 869 869 866 862 860 861 860 859 856 855 856 856 855 854 854 852 850 849 847 845 843 840 838 835 831 828 825 821 818 815 811 808 805 802 799 795 791 787 782 778 774 770 766 762 758 754 750 745 740 736 731 726 721 717 712
861 860 857 857 856 845 833 832 838 840 841 848 858 863 861 861 864 863 859 861 865 865 865 870 872 871 868 867 869 871 871 872 871 867 864 861 860 859 858 857 856 857 858 857 855 855 852 851 849 847 845 843 840 837 835 832 829 825 821 818 814 811 807 804 802 798 794 790 786 781 777 772 768 763 759 756 752 747 743 737 733 728 723 718 714 710
862 862 858 858 857 847 836 837 837 832 838 855 865 865 862 864 868 865 862 865 870 870 871 874 873 870 870 871 873 874 872 872 871 867 865 863 861 859 858 859 859 859 859 857 856 855 854 852 850 847 845 843 840 837 835 832 830 826 822 818 814 810 807 804 801 797 793 788 784 780 775 771 766 762 757 753 749 744 739 734 730 725 721 716 712 707
861 862 859 857 856 849 842 844 840 835 846 864 868 864 862 863 864 865 864 868 873 873 873 874 872 870 872 874 874 873 871 871 869 866 864 864 864 862 860 860 861 862 860 857 856 855 854 852 849 846 844 842 840 837 834 831 828 825 821 817 813 810 807 804 800 796 792 787 783 779 774 769 764 759 755 750 746 742 737 732 727 722 718 713 709 705
862 863 861 857 853 851 849 851 852 852 858 865 866 864 865 863 863 866 867 870 876 875 873 874 872 869 872 873 872 871 869 867 866 863 863 865 865 863 863 863 864 863 861 859 858 857 855 853 851 847 845 842 840 837 834 831 827 823 819 816 813 809 806 803 799 795 791 786 782 778 773 768 762 757 752 748 743 739 734 730 725 720 715 711 707 703
862 861 861 858 853 854 855 854 856 859 861 866 871 870 870 870 869 871 872 872 875 874 872 872 871 870 872 873 871 869 865 862 863 863 864 866 866 865 866 866 865 864 863 862 861 859 857 855 853 850 847 844 841 837 834 831 827 823 818 815 811 808 805 802 798 794 790 785 781 776 772 767 761 755 750 745 741 736 732 727 722 718 713 709 704 700
861 860 861 858 854 855 857 859 861 859 860 871 878 874 871 872 869 870 873 872 871 871 871 872 873 873 874 873 871 868 863 860 861 863 865 865 866 866 867 867 866 865 863 862 861 860 858 855 852 850 847 844 840 837 834 830 827 823 818 814 811 807 804 800 796 792 788 784 779 775 770 765 760 754 748 744 739 734 728 724 719 715 711 706 702 697
860 861 861 860 859 859 862 867 865 858 862 877 882 874 871 871 868 869 872 870 869 871 873 873 874 875 876 876 874 871 868 865 861 860 863 865 866 867 867 866 866 865 863 863 862 860 857 854 851 848 845 842 839 836 833 829 826 822 818 814 811 807 803 799 795 791 787 782 778 774 769 764 759 754 748 742 737 732 727 721 716 712 708 703 699 694
857 860 860 861 864 865 867 868 862 858 870 882 879 873 872 869 866 869 869 866 868 873 875 875 876 878 879 878 876 875 877 875 867 861 863 866 867 867 868 867 866 864 862 861 860 858 856 853 850 846 843 840 837 834 832 828 825 822 818 814 811 807 803 799 794 790 785 781 776 772 767 763 757 752 747 741 736 731 725 720 714 709 704 700 695 690
864 865 863 864 866 867 869 869 862 863 878 884 877 874 872 865 865 872 872 870 872 876 878 879 879 880 880 879 879 880 880 879 873 868 866 866 867 867 868 868 867 864 862 860 858 856 854 851 849 846 843 840 837 833 830 827 823 820 816 813 810 806 803 798 793 788 783 778 774 769 764 760 755 749 744 739 734 729 723 718 713 707 702 696 692 688
873 872 868 869 870 868 869 870 865 867 879 883 876 872 869 868 874 879 876 875 877 879 881 880 879 880 881 881 881 880 878 876 874 871 870 869 868 868 868 866 865 863 861 860 857 855 852 849 847 845 843 840 837 833 830 826 822 819 815 811 808 805 801 796 791 786 781 776 771 766 761 756 751 746 741 736 731 726 721 716 711 705 700 694 690 686
877 877 875 875 876 875 874 873 870 871 877 880 877 873 873 878 883 881 878 878 880 881 881 880 879 880 882 881 881 879 876 874 873 872 872 870 870 869 867 866 864 862 860 858 856 854 852 849 846 844 841 838 836 833 829 825 821 817 814 810 807 803 799 794 789 784 779 774 769 764 759 754 748 744 738 733 729 724 719 713 708 703 698 694 689 686
877 880 880 878 880 883 882 876 875 878 881 881 880 879 881 883 883 882 881 881 881 881 881 880 880 881 881 881 880 877 875 874 873 873 871 870 870 869 867 865 864 862 860 858 856 854 852 849 846 843 840 838 835 832 828 825 820 816 813 809 805 801 797 792 788 783 777 773 768 762 757 752 747 742 737 732 727 723 717 711 706 702 698 693 689 685
879 881 881 881 881 883 881 877 877 882 884 882 881 881 883 884 883 882 882 882 881 882 882 881 880 880 881 880 879 877 875 874 874 873 871 870 870 869 867 866 864 862 859 857 855 853 851 848 845 842 838 836 833 830 828 825 821 815 811 808 804 799 795 790 785 780 775 771 766 761 756 751 746 741 736 731 727 722 716 710 706 701 697 692 688 683
883 882 881 881 882 882 879 877 879 882 881 880 880 881 882 883 882 882 882 882 882 882 881 881 880 880 880 880 878 876 875 875 875 873 872 872 871 869 868 866 864 861 859 856 854 852 849 847 844 841 837 834 832 829 827 824 821 817 812 807 803 798 794 789 783 778 773 769 764 759 755 749 744 739 735 730 726 721 716 711 706 701 696 691 687 683
883 883 881 883 887 886 879 877 881 883 881 880 880 881 882 883 883 883 884 883 883 882 882 881 880 880 880 879 877 876 876 876 875 874 873 872 871 869 868 866 863 861 859 856 854 851 848 845 842 839 836 833 830 828 825 822 820 816 812 807 802 798 793 788 783 777 772 767 763 758 754 749 743 739 734 729 724 720 716 710 706 701 696 691 686 682
884 883 885 889 892 888 881 879 882 882 880 880 881 882 884 885 884 884 884 884 884 883 882 881 881 881 880 879 877 877 877 876 875 874 873 872 870 869 867 865 863 860 858 856 854 851 848 845 842 839 837 833 829 827 824 821 818 814 810 806 801 797 792 787 782 777 771 766 762 757 753 748 743 738 733 728 723 719 715 710 705 700 695 691 687 682
887 886 889 892 893 889 884 883 883 882 880 879 882 884 886 886 885 885 885 885 884 883 882 882 881 881 880 878 877 877 877 876 875 874 873 871 870 868 866 864 862 860 857 855 853 851 848 846 842 840 837 833 829 826 823 819 816 813 809 805 800 796 791 785 781 776 770 766 761 757 752 748 743 739 733 728 722 717 713 710 706 701 695 691 687 683
890 891 892 895 895 893 889 888 888 888 885 883 884 886 886 886 886 885 885 885 884 882 882 882 881 881 880 879 878 878 877 876 875 874 873 871 869 867 865 863 861 859 857 855 852 850 848 846 843 840 836 832 829 826 822 818 815 811 808 804 800 795 791 785 780 774 770 765 760 756 752 747 743 738 734 728 722 715 709 705 703 700 696 691 685 681
893 893 894 896 897 894 891 890 891 891 890 888 887 887 887 886 887 886 885 885 884 883 882 882 881 880 879 878 878 878 877 876 875 873 872 871 869 867 865 863 860 858 856 853 851 848 846 844 841 838 835 831 828 825 821 817 814 810 807 803 799 795 791 786 780 775 770 765 761 756 752 748 743 738 734 729 724 718 711 703 697 693 691 689 684 679